Theta_e
304 305 307 308 305 296 299 303 300 302 304 304 299 304 304 301 294 295 301 301 302 306 312 315 320 320 321 321 321 322 322 323 324 324 325 327 329 330 331 330 324 322 322 323 323 323 325 326 326 327 328 330 331 333 334 334 336 337 336 339 337 338 339
306 306 307 306 307 305 299 298 301 306 310 306 301 294 293 292 292 293 299 298 298 299 300 313 318 318 319 319 320 321 322 323 323 324 325 327 328 330 332 331 326 323 323 324 323 323 324 326 326 326 328 330 331 332 334 334 335 335 336 337 338 338 338
304 302 304 301 303 306 304 299 305 304 296 297 298 295 291 291 290 292 294 299 300 298 302 307 314 316 317 318 319 320 321 322 323 324 325 327 329 330 331 330 326 324 323 323 323 323 324 326 327 326 328 329 330 332 334 334 335 336 336 337 338 339 339
302 299 298 295 295 303 305 308 306 309 303 298 299 297 295 294 292 291 292 295 297 302 302 308 311 317 319 319 319 319 322 323 324 324 325 327 328 329 330 330 327 325 324 324 324 324 324 324 326 326 327 329 329 331 334 334 335 336 337 337 339 339 340
300 296 296 296 297 299 299 302 298 303 304 306 304 304 301 298 292 289 290 290 294 302 307 310 311 317 320 321 320 321 322 324 325 325 326 327 329 330 331 331 328 326 325 325 325 325 326 326 328 328 327 328 329 330 332 334 334 334 335 336 337 339 341
293 298 299 298 299 299 298 299 298 300 300 301 298 295 300 299 295 292 291 292 296 304 313 312 312 316 322 323 323 323 324 325 326 326 327 329 329 330 331 331 329 327 327 326 325 325 326 326 327 327 327 328 329 330 331 333 334 334 334 335 336 338 341
298 301 304 301 300 302 300 301 299 303 302 300 294 290 292 299 300 302 296 296 300 310 315 316 316 317 323 324 324 324 325 326 327 328 329 330 330 330 330 331 329 328 328 328 326 325 326 327 328 329 328 328 329 330 331 333 333 334 335 336 337 338 339
296 299 299 300 301 301 300 299 304 303 301 303 302 295 296 298 299 298 297 296 297 308 320 318 317 317 320 324 324 324 325 327 328 328 328 329 329 330 331 331 330 330 329 329 328 326 326 327 329 330 329 329 329 330 332 333 333 334 335 336 337 338 339
291 291 294 296 297 298 294 295 296 304 304 303 301 301 300 300 298 298 295 291 295 305 316 318 318 319 319 321 323 325 324 325 327 328 328 329 330 330 330 329 329 329 329 329 328 328 328 328 329 331 331 329 329 331 332 333 334 335 336 338 338 339 340
286 284 285 288 291 294 294 296 296 305 305 304 303 301 299 294 298 299 296 295 300 306 310 315 316 317 320 320 322 324 325 326 326 327 328 328 329 329 330 329 328 328 330 331 331 330 330 329 330 331 332 331 330 331 333 334 334 336 337 338 339 340 341
289 288 290 294 304 295 295 296 295 300 306 305 303 299 296 296 295 299 298 299 301 304 308 311 313 317 318 319 320 321 322 324 327 327 327 328 328 329 329 329 329 329 330 330 331 332 331 331 331 331 331 331 331 332 333 335 336 336 338 339 340 341 343
296 294 296 296 302 296 294 295 295 299 304 304 303 301 297 300 300 294 301 302 304 304 307 309 312 314 315 317 319 321 322 324 325 326 327 333 329 329 329 329 327 328 329 330 331 332 332 332 332 332 332 332 332 333 334 335 337 338 340 340 342 343 345
297 294 294 295 295 296 296 295 294 296 303 305 303 301 300 303 299 298 300 303 303 306 308 311 314 315 315 316 319 322 324 324 326 327 326 327 327 328 327 327 327 328 328 330 331 331 332 333 332 333 333 332 333 335 336 337 338 339 342 342 344 346 348
295 294 294 295 295 296 299 300 299 298 299 301 302 303 303 304 303 303 304 303 305 308 310 312 315 317 319 319 322 324 323 323 325 325 325 326 327 327 326 327 327 328 329 330 331 331 332 332 332 332 333 332 333 334 335 337 339 342 344 345 347 349 349
295 294 296 295 294 298 301 302 302 302 300 295 297 299 305 308 303 304 303 305 304 309 312 313 316 316 321 322 322 322 323 323 324 324 325 326 327 327 327 327 327 328 329 330 330 331 331 332 332 333 333 333 333 335 337 339 341 345 346 348 349 349 348
291 294 293 295 296 299 300 301 303 303 301 299 299 305 305 304 301 301 302 301 303 307 310 315 317 318 317 317 319 323 326 324 324 324 325 326 326 327 327 326 326 327 328 329 330 330 331 332 333 333 333 333 333 334 338 340 345 349 349 349 349 348 346
289 290 294 295 294 294 296 300 302 304 304 301 301 308 314 313 310 303 300 301 305 309 314 313 313 315 316 319 321 322 326 326 324 324 325 326 327 327 328 327 326 327 328 329 330 331 331 332 333 333 334 333 333 336 340 345 350 349 349 349 347 344 343
289 290 294 295 291 289 292 300 305 306 307 308 309 308 310 313 312 309 306 309 312 312 311 311 311 312 316 319 325 330 331 330 326 324 325 326 328 328 328 328 327 327 329 330 331 331 332 333 334 334 336 335 335 340 346 350 350 349 347 345 344 342 341
292 293 292 292 285 288 300 303 305 306 307 312 311 310 312 313 315 315 315 316 316 318 315 312 314 316 324 327 328 329 332 330 328 327 326 327 328 328 328 328 328 328 328 329 330 331 332 334 336 338 339 343 346 348 350 349 348 346 345 343 341 340 338
293 291 287 284 286 295 301 303 306 312 307 308 308 305 310 314 315 316 315 317 320 321 319 316 314 318 326 326 329 331 331 333 329 328 327 328 329 329 331 330 330 329 329 329 330 331 336 340 343 342 344 348 348 349 350 348 346 345 343 341 339 338 336
292 291 287 290 296 299 305 305 309 309 307 308 304 302 308 313 315 317 317 319 321 317 312 312 318 322 321 319 323 330 333 332 333 331 331 334 334 335 335 334 333 335 334 333 334 339 342 345 347 347 350 349 349 348 346 345 344 342 341 339 337 337 334
293 291 290 290 291 290 294 301 308 311 312 312 308 307 304 312 316 320 319 320 321 317 316 318 321 320 316 313 318 326 334 335 333 339 340 344 344 343 342 340 338 337 337 339 344 345 347 349 350 351 350 349 347 345 344 343 341 340 339 337 336 335 333
295 291 287 288 288 291 297 304 307 310 311 311 307 303 298 311 315 318 320 322 322 319 317 317 318 315 310 311 315 326 333 336 335 338 345 349 350 350 348 345 342 342 345 349 351 351 350 349 351 350 349 347 345 343 342 341 340 338 337 335 334 333 332
296 290 290 291 292 295 305 305 307 311 314 309 303 295 295 306 315 318 321 323 323 322 320 321 317 310 309 311 320 329 334 337 338 338 345 349 351 352 354 353 351 352 354 353 351 350 349 350 350 349 347 345 343 341 341 340 338 337 336 334 333 332 332
299 299 292 293 296 305 309 310 311 311 311 307 298 291 299 310 315 319 321 322 324 322 322 321 321 322 317 324 329 334 338 339 344 348 350 351 353 352 352 353 353 353 352 351 349 348 348 349 348 347 346 343 341 341 340 338 337 336 334 333 332 331 330
295 294 296 293 293 302 307 308 311 312 307 299 294 302 309 313 317 319 322 323 325 324 323 323 322 324 326 335 335 337 340 340 343 348 350 351 351 352 352 351 351 350 348 347 347 346 346 346 346 345 344 341 340 339 338 335 334 333 332 331 331 330 328
295 293 293 292 290 303 310 313 310 312 305 300 306 314 317 318 318 320 322 324 326 325 326 326 327 330 331 331 333 335 339 342 344 346 346 346 349 349 349 349 350 348 345 344 343 343 343 343 342 342 342 339 338 336 333 331 331 331 330 329 329 328 327
293 293 292 292 297 303 310 311 304 307 309 312 316 319 318 321 321 321 320 323 324 326 326 328 329 329 329 331 334 336 336 337 339 340 342 344 345 346 349 349 347 345 342 342 340 340 340 339 339 338 338 335 334 332 330 331 330 330 329 328 328 327 327
298 296 296 302 307 309 312 312 309 316 318 319 321 320 320 320 321 321 322 323 325 326 327 328 328 329 330 329 333 335 336 337 338 339 340 341 342 344 345 345 344 342 340 339 338 337 337 336 336 335 335 333 331 328 329 331 329 328 328 328 327 325 324
306 307 308 311 313 315 319 320 320 321 322 323 321 322 320 321 320 322 322 324 326 327 327 328 327 328 328 328 330 333 336 336 337 338 338 338 340 342 342 341 341 340 340 339 338 336 336 336 336 335 334 333 329 328 330 330 329 329 328 326 325 324 323
302 300 306 310 312 314 316 319 323 323 323 324 324 323 321 322 324 325 326 325 325 326 325 328 326 326 327 327 330 333 334 335 335 335 336 337 339 339 339 340 339 339 338 337 336 335 334 335 335 335 333 332 330 330 330 330 330 329 327 326 326 324 322
303 303 308 310 312 313 315 314 321 322 323 324 326 325 325 324 326 327 328 327 327 327 328 328 328 328 329 328 330 332 333 334 334 333 334 335 336 337 339 339 339 338 337 336 335 335 335 335 334 333 331 330 330 330 329 328 328 327 328 325 323 322 321
303 306 308 308 311 311 313 317 318 318 322 323 325 326 326 327 327 327 327 329 327 327 327 328 328 328 328 328 329 332 332 333 332 331 332 333 334 335 336 337 338 337 336 336 335 334 333 333 332 331 330 330 330 329 329 328 327 327 327 327 323 321 321
300 303 306 309 305 303 310 314 317 322 324 325 325 326 327 326 325 325 326 327 328 328 327 328 328 327 327 327 328 330 331 331 331 330 331 331 332 333 334 335 335 336 336 335 334 332 331 331 331 331 330 330 330 330 329 329 328 327 326 323 321 320 320
299 304 307 308 309 307 308 313 318 322 324 326 325 325 326 326 325 325 326 327 327 327 328 329 328 327 326 327 328 328 329 329 330 330 330 331 331 332 333 333 332 333 333 334 333 331 330 331 331 330 329 330 329 329 328 328 328 326 324 322 321 320 321
306 308 309 311 310 310 313 315 317 321 324 325 325 325 325 326 326 327 326 325 326 325 326 327 329 328 328 328 328 327 327 329 330 330 330 331 331 332 333 332 332 333 333 332 331 331 331 331 330 330 329 329 329 328 328 327 327 325 323 322 320 320 320
306 309 310 311 312 312 313 315 318 321 326 327 325 326 326 327 327 328 326 325 325 327 327 328 328 329 329 329 328 327 327 328 330 330 330 331 332 331 331 332 332 332 332 332 332 331 331 330 329 329 329 328 329 328 327 326 325 323 322 322 320 319 319
Wind_Speed
3 5 2 2 5 1 1 3 4 7 3 6 4 1 1 2 3 3 0 6 5 6 1 4 6 6 10 13 13 14 15 15 11 11 10 10 10 10 8 8 8 8 8 10 11 11 11 11 11 12 12 13 13 12 11 11 11 9 10 11 12 12 11
5 3 6 4 5 5 4 1 8 1 1 3 3 2 2 3 1 4 1 1 7 6 1 2 8 7 9 11 13 13 12 12 12 12 11 12 12 11 9 8 8 9 10 11 11 11 12 13 13 13 13 12 12 12 12 13 12 11 10 10 11 10 9
8 4 2 3 3 1 7 4 2 3 2 3 2 3 1 1 2 3 4 2 5 3 3 2 2 5 8 11 11 11 11 12 15 14 13 12 10 8 9 9 9 9 9 10 11 11 12 12 13 14 13 12 10 10 11 13 14 14 14 11 11 9 9
3 4 2 2 2 1 1 2 2 0 3 2 1 3 2 4 1 2 4 2 2 5 4 2 4 6 9 10 12 15 16 17 15 14 13 13 12 11 10 9 9 9 10 11 12 11 11 11 11 11 12 10 12 12 11 11 10 9 9 10 9 9 10
3 2 0 2 2 1 0 1 2 0 2 2 2 1 1 1 3 3 1 3 4 6 5 3 3 11 11 13 16 13 15 14 14 13 14 13 12 11 11 11 10 10 10 10 11 11 11 10 10 10 10 12 12 10 11 11 12 11 10 10 8 9 7
4 9 5 2 4 3 3 6 6 7 4 1 0 4 1 1 2 2 2 4 6 9 2 4 3 8 11 11 11 12 12 14 13 11 11 12 12 12 12 11 10 9 9 10 10 9 8 9 9 10 10 9 10 10 11 11 9 9 10 9 8 8 7
8 11 9 4 4 3 2 5 4 4 4 5 2 2 2 1 0 2 2 0 6 5 2 3 3 7 11 13 10 9 11 13 14 13 13 13 13 13 12 11 10 9 10 10 10 11 11 11 11 11 9 10 10 11 10 9 10 10 9 10 8 7 6
8 10 9 1 3 4 0 1 2 4 5 7 8 5 4 4 1 0 1 1 5 3 1 2 1 5 6 8 11 11 9 11 13 13 12 12 11 11 12 10 9 9 9 9 8 10 11 10 9 9 9 9 10 9 10 9 10 11 9 7 6 6 6
8 5 5 1 2 2 1 1 2 1 2 3 2 5 1 0 5 5 6 3 4 2 3 1 2 4 7 9 9 9 9 6 9 13 13 13 14 13 12 11 10 8 8 9 9 10 10 10 9 8 8 9 9 9 9 9 10 10 8 6 6 6 5
1 1 2 2 3 2 3 1 1 1 6 7 4 2 1 2 1 3 1 4 9 8 4 1 1 1 3 5 7 7 8 9 10 9 10 10 11 12 13 13 11 11 11 10 9 9 9 10 9 8 8 9 10 10 10 9 10 8 7 6 6 6 6
7 6 3 4 1 2 1 2 3 2 2 1 3 4 5 6 3 5 6 5 5 6 3 3 3 2 4 6 5 7 6 5 6 7 9 10 10 11 13 12 11 10 9 11 12 11 10 10 9 9 10 10 9 9 9 8 8 8 7 6 6 7 6
9 6 4 1 1 1 3 1 2 1 2 5 5 5 4 4 6 6 4 4 1 9 4 5 5 3 3 3 5 6 6 7 8 9 7 8 8 7 8 9 11 12 12 11 11 11 10 10 9 9 10 10 11 11 11 9 8 7 5 6 7 7 7
8 4 6 1 2 1 1 2 2 2 1 2 5 5 4 8 3 9 4 3 4 8 6 7 7 6 8 8 9 9 8 4 4 4 5 8 10 10 11 12 12 12 12 11 11 11 11 10 11 10 9 8 7 8 8 8 8 7 6 8 7 8 8
3 4 5 2 2 1 2 3 3 0 1 3 1 0 1 4 3 2 1 4 10 10 8 7 7 4 1 1 3 3 4 7 8 8 9 10 9 11 13 13 13 13 14 12 12 12 11 12 12 10 8 8 9 10 9 7 6 5 7 7 9 8 9
0 2 6 0 2 5 3 3 4 5 2 3 1 2 0 2 5 7 5 1 10 7 3 4 1 3 4 3 3 6 6 7 9 9 10 10 11 12 12 12 13 12 12 12 12 12 13 13 13 11 11 10 10 9 7 7 7 7 8 9 8 9 10
1 0 2 2 0 4 5 5 7 9 8 5 4 4 2 0 4 6 4 3 8 6 5 1 1 2 4 5 5 3 4 6 7 10 11 11 12 12 12 12 11 10 11 12 12 13 12 12 12 11 10 8 8 9 8 7 7 8 8 9 10 10 11
1 3 2 0 1 3 4 5 3 2 4 3 2 2 2 0 2 2 4 9 3 4 6 3 3 3 3 4 6 5 4 5 8 11 12 12 12 14 13 13 13 13 14 14 14 14 11 11 11 11 11 9 10 9 9 8 9 9 9 10 11 11 11
2 3 4 1 3 1 2 3 2 2 2 4 6 2 3 3 1 4 4 10 10 8 8 5 5 6 2 1 1 2 1 2 5 5 7 9 9 9 11 14 15 14 12 11 12 13 13 13 13 11 10 12 9 8 9 9 11 10 11 10 11 12 11
3 3 2 1 0 3 4 4 2 2 5 6 8 4 1 3 3 4 7 8 8 8 8 8 4 4 5 7 6 2 1 4 4 4 4 4 5 7 8 9 10 11 11 11 9 8 7 6 5 6 5 6 8 9 10 10 10 12 11 12 12 12 12
2 2 3 1 2 3 4 7 3 1 4 3 3 4 3 3 3 3 6 10 10 9 10 9 3 5 7 7 7 5 4 0 2 3 5 4 4 4 3 4 5 7 11 12 12 10 5 7 7 8 8 9 10 10 9 11 11 12 12 12 12 11 12
2 1 3 4 3 3 2 1 0 1 1 2 3 1 2 4 4 3 6 10 8 8 6 7 1 5 4 7 5 5 4 3 1 2 2 3 4 6 6 5 4 2 4 3 3 4 7 9 10 9 10 10 11 11 11 11 12 11 12 12 12 11 11
4 4 1 1 1 2 3 5 3 2 2 3 3 3 3 6 6 2 4 7 8 6 6 2 1 4 6 3 3 6 6 5 4 3 5 5 5 5 5 5 5 4 3 2 4 8 9 8 8 9 11 12 13 12 11 11 12 11 11 11 11 11 11
2 2 3 2 3 4 6 5 4 2 3 5 5 2 3 4 5 5 3 6 6 3 2 4 2 3 4 3 3 5 4 8 7 3 5 6 6 5 4 5 7 8 7 8 6 7 10 11 9 11 12 13 13 12 12 11 11 12 11 12 12 12 12
2 6 3 3 4 2 1 7 2 1 3 6 4 2 2 4 7 6 4 6 6 5 3 2 6 5 6 3 2 1 4 4 5 3 3 6 7 8 8 7 5 7 10 11 9 7 7 9 11 12 13 13 14 14 12 12 12 12 12 12 11 11 11
3 5 1 2 4 4 4 4 3 3 3 3 1 3 3 3 5 4 3 6 6 3 2 1 5 1 1 1 1 3 4 6 7 6 5 6 7 8 9 9 8 8 8 10 11 10 7 7 7 10 11 13 13 13 13 12 12 11 11 12 12 11 10
5 5 4 6 4 6 4 3 4 4 3 1 2 2 3 2 4 4 1 4 5 2 4 3 2 1 2 2 4 5 6 7 5 6 6 8 9 9 9 10 12 11 11 12 14 14 11 10 8 5 6 11 12 12 11 11 11 11 12 12 11 11 12
3 2 2 1 2 2 4 1 2 0 1 4 4 3 1 2 3 2 3 3 4 2 2 1 2 2 3 4 3 4 5 7 7 7 7 7 9 10 11 11 12 15 13 13 13 13 13 13 11 9 8 8 9 10 12 13 12 13 13 13 13 13 12
4 3 3 3 4 1 0 2 3 3 3 5 7 7 3 3 3 3 3 4 5 3 5 6 4 2 4 2 3 5 6 6 6 7 6 7 8 7 8 10 12 15 15 14 13 12 13 13 12 12 12 10 8 9 12 11 13 14 14 14 14 14 12
1 2 2 3 3 4 4 2 3 2 1 4 6 5 5 4 5 4 2 4 2 1 2 3 5 3 1 1 2 4 5 6 5 6 6 6 7 8 10 11 11 11 14 15 14 14 13 17 15 15 14 15 13 12 7 5 9 15 15 16 15 15 14
2 3 6 5 3 3 4 1 1 3 3 1 3 5 3 4 4 4 2 2 4 2 0 2 2 3 3 2 1 3 4 4 5 5 6 6 7 9 10 10 11 12 13 13 14 14 12 16 18 19 20 19 18 12 10 8 1 5 13 15 15 15 14
2 2 3 4 3 3 3 3 2 3 3 2 2 0 1 3 1 0 2 2 3 3 1 1 0 3 6 4 3 3 4 4 4 5 6 7 8 11 13 12 14 13 14 13 13 14 13 6 8 16 20 20 20 17 13 11 6 1 5 12 13 14 14
1 1 2 4 5 5 5 4 0 2 1 3 2 0 1 0 0 1 1 1 1 1 3 3 2 4 6 7 5 5 4 4 3 2 3 5 5 3 7 10 10 11 13 15 15 15 14 12 2 4 15 19 20 17 14 13 13 7 3 9 13 13 15
5 2 2 3 3 3 4 2 3 4 3 3 3 3 2 1 2 0 1 0 1 2 3 0 2 3 6 5 6 6 5 4 3 4 4 2 2 5 6 5 5 8 9 11 13 12 10 7 11 7 7 15 20 21 16 15 15 13 8 7 9 12 11
1 2 2 6 4 3 5 4 4 2 2 2 3 2 2 1 2 2 2 0 0 1 2 2 1 1 3 5 5 6 5 6 5 3 3 3 5 5 3 4 4 4 3 5 7 8 7 6 6 7 3 4 14 16 16 13 14 13 10 8 7 8 8
4 6 5 2 4 6 9 6 3 1 2 3 4 4 3 3 2 2 1 1 2 2 2 1 0 1 2 2 5 5 5 5 4 3 3 4 3 3 5 7 6 6 7 7 7 8 8 7 7 8 9 5 11 15 15 13 14 13 12 10 8 8 9
6 6 5 1 1 4 7 5 5 3 3 4 4 3 3 3 4 3 2 1 1 3 3 3 1 1 0 2 5 5 3 3 4 4 3 3 3 3 2 5 8 9 8 7 8 9 8 7 8 9 11 9 10 15 15 15 14 14 12 11 10 9 9
4 5 5 4 4 8 9 7 7 4 3 4 4 5 6 5 3 3 2 2 2 2 3 5 3 1 2 3 5 6 5 3 4 4 4 4 5 4 3 4 9 8 6 5 4 5 7 7 6 5 6 8 9 12 14 14 14 14 12 11 11 9 9
Wind_Direction
188 234 159 224 137 256 252 106 210 218 182 109 73 66 27 90 52 256 217 315 297 293 28 351 1 104 151 157 164 170 185 190 188 197 196 194 194 196 193 188 189 187 182 183 184 187 191 190 189 192 192 192 193 189 190 197 202 199 198 201 204 208 211
282 224 200 204 198 146 85 167 243 244 145 107 138 236 340 57 131 265 29 248 302 18 316 4 42 75 131 159 166 171 175 177 188 199 198 196 195 194 187 189 188 187 184 183 184 186 187 188 190 193 195 194 192 190 189 192 196 198 204 205 212 211 208
267 352 108 308 313 280 183 192 205 124 274 280 319 93 329 315 307 300 316 288 265 170 265 6 80 127 159 163 168 162 170 184 195 198 200 197 190 182 186 193 191 190 185 184 183 185 189 190 189 190 192 192 190 193 194 192 195 198 200 203 209 212 210
298 337 71 265 291 334 78 84 96 123 110 173 128 202 175 114 258 45 292 32 273 224 214 215 179 181 164 165 165 177 182 189 193 194 193 190 188 189 189 191 190 188 188 186 184 183 184 187 189 190 187 187 190 192 191 199 203 201 202 205 203 208 211
345 319 166 209 169 135 347 194 282 358 19 207 109 19 85 218 172 179 224 336 283 266 214 176 193 174 179 176 179 189 186 188 192 191 186 188 187 188 190 191 190 187 187 187 186 185 185 184 184 183 181 187 192 188 193 195 195 200 203 209 198 213 202
311 247 221 184 172 175 168 174 206 174 124 129 126 270 19 81 92 221 122 252 264 271 173 186 177 182 171 196 185 182 185 183 185 191 191 184 186 191 189 191 184 183 185 186 184 183 179 177 180 185 186 185 187 188 194 193 197 201 202 205 203 206 199
254 266 266 191 191 151 186 156 247 169 129 111 113 227 278 19 267 110 162 136 274 242 213 163 179 165 184 182 186 196 182 184 185 186 185 187 187 187 188 188 183 181 183 185 181 180 180 183 185 185 180 182 189 191 190 192 192 205 204 208 205 195 196
289 291 286 240 193 174 219 296 103 131 180 185 184 177 185 142 167 57 330 237 251 289 352 289 156 166 187 186 181 192 202 182 183 182 180 183 185 190 187 185 182 182 184 182 177 182 185 186 182 181 181 184 190 189 191 187 197 206 207 207 188 182 194
332 335 348 15 349 57 114 199 234 169 85 82 134 105 70 242 225 167 120 244 285 275 343 352 66 106 165 189 205 185 187 201 190 184 185 186 186 183 183 182 180 177 178 180 185 185 187 189 184 177 174 183 186 195 190 190 203 205 203 186 177 182 162
210 330 7 306 304 244 274 296 340 186 152 135 114 178 66 173 279 115 144 260 256 278 315 342 54 97 199 214 199 202 192 183 185 188 188 186 181 186 184 181 176 179 183 183 185 188 190 189 184 178 179 183 191 193 196 194 200 200 198 175 180 153 153
185 210 212 248 112 352 11 295 306 278 113 166 83 103 110 205 199 187 234 184 305 322 308 307 282 125 190 191 187 195 208 207 194 187 183 182 185 182 183 183 183 180 180 186 189 189 190 190 187 183 181 185 190 194 201 201 202 200 188 168 152 149 149
216 188 216 241 77 243 255 293 322 0 168 150 130 152 208 172 105 292 256 188 267 262 270 269 269 248 223 224 196 200 195 194 189 188 186 183 178 183 180 178 180 184 188 189 190 191 191 192 189 189 190 185 187 191 200 203 202 194 160 145 143 142 143
246 234 262 329 310 206 264 311 349 345 248 183 165 222 190 147 165 230 265 174 203 261 229 229 225 208 201 195 194 199 193 171 161 150 167 183 186 181 183 191 186 185 188 191 193 191 195 192 189 191 189 190 194 202 202 199 193 188 151 140 140 140 140
280 271 260 279 210 21 30 2 2 28 205 212 187 315 298 210 256 251 56 195 239 252 256 221 231 199 143 135 125 97 140 176 179 179 179 186 189 190 191 191 192 191 190 190 192 191 195 194 193 188 185 187 190 192 200 192 180 149 136 140 139 141 136
294 318 354 253 176 120 56 335 354 11 48 100 75 126 62 224 288 286 287 256 278 264 258 258 308 102 121 95 123 176 185 170 174 183 192 190 189 194 199 195 194 195 193 193 192 194 197 195 193 187 189 189 188 191 186 174 164 153 140 140 139 135 127
301 304 28 335 276 62 67 19 6 8 13 38 348 52 303 103 275 296 352 308 269 290 308 259 288 112 149 197 207 181 184 185 175 190 196 195 195 193 194 196 195 195 196 196 197 199 199 197 193 188 187 182 173 183 170 164 151 142 136 135 130 126 127
271 251 97 60 66 21 14 334 315 34 42 105 134 86 52 64 210 301 264 241 225 285 326 311 253 191 166 199 214 201 197 200 189 196 201 204 200 193 189 187 191 194 196 198 198 200 197 194 191 195 182 167 180 173 162 154 138 137 131 129 126 127 132
243 289 341 71 68 64 238 231 174 135 148 153 88 39 324 299 170 231 220 262 285 301 302 254 240 215 232 224 262 20 346 217 217 225 213 214 212 206 195 188 190 196 197 199 199 197 193 193 194 186 175 179 176 157 144 138 137 132 128 129 130 133 135
211 314 20 40 278 223 242 291 276 160 141 123 128 161 201 287 267 275 292 278 278 267 263 260 282 55 63 67 72 19 104 140 174 205 229 230 215 204 206 207 199 195 197 197 199 198 196 179 154 134 143 127 123 129 136 132 131 130 132 133 136 141 139
35 47 53 111 237 236 281 286 291 214 114 121 106 319 304 302 306 289 281 284 289 286 278 264 241 150 125 93 60 38 339 136 167 177 176 175 182 219 242 242 245 213 194 190 190 194 158 142 148 152 150 141 135 135 133 132 135 136 137 137 138 138 136
187 186 148 213 290 345 38 31 263 154 192 180 160 167 284 301 306 311 296 303 304 303 267 256 205 175 106 62 20 4 11 330 148 150 149 147 165 163 163 162 192 243 298 269 189 134 145 149 147 149 141 137 131 131 133 136 135 136 135 136 139 137 134
121 132 19 354 18 199 273 245 272 308 212 180 169 109 295 297 311 319 337 315 312 310 314 327 218 167 95 51 327 314 340 354 344 108 121 108 118 123 133 124 119 119 115 114 147 150 141 140 138 136 138 136 134 132 132 134 132 132 133 135 137 135 135
82 47 127 202 159 241 201 229 239 248 214 149 119 71 325 279 296 318 4 321 316 302 318 319 346 100 119 205 250 284 329 349 347 7 91 107 101 89 97 132 131 130 130 129 131 133 136 135 140 137 135 133 130 130 133 134 134 136 138 138 140 139 137
188 140 124 221 197 209 221 224 267 254 159 129 75 20 285 264 298 310 351 329 316 318 331 79 64 118 147 227 248 335 12 358 351 341 21 75 85 85 85 76 101 120 123 114 106 108 121 131 134 136 136 134 133 134 137 138 139 139 140 137 131 128 127
175 144 224 333 301 268 255 235 227 199 182 84 89 213 236 247 265 288 341 299 298 308 14 76 85 249 188 188 120 11 25 68 55 57 59 68 85 92 93 96 94 86 86 101 102 97 91 99 122 135 137 133 135 137 137 136 136 135 131 126 124 121 115
174 196 151 215 235 239 200 260 163 181 110 142 211 235 200 156 251 277 255 279 294 353 55 47 132 208 312 23 55 60 81 104 110 106 100 95 86 85 93 100 99 95 90 88 93 91 85 77 63 56 107 124 126 129 126 122 121 118 116 114 111 108 106
68 53 89 27 211 264 157 157 69 143 157 231 199 147 295 204 250 254 284 229 263 172 81 74 82 55 38 44 41 62 88 110 121 124 121 114 115 114 113 106 110 111 104 101 101 105 100 92 83 75 69 90 110 113 114 119 120 118 116 115 114 112 111
152 146 152 196 209 233 239 137 191 216 200 177 155 137 191 255 239 264 267 267 238 252 163 150 123 115 110 77 97 90 81 89 107 119 119 117 117 103 102 114 118 113 113 115 110 103 102 97 91 89 92 85 81 95 110 123 121 120 119 119 118 116 113
132 192 217 253 265 246 281 181 231 149 125 141 152 134 160 179 248 209 228 264 273 209 163 136 131 133 184 147 127 103 126 124 127 135 138 131 124 120 120 122 119 117 123 124 122 120 118 113 107 101 98 99 96 89 75 88 129 131 130 128 126 126 127
264 251 225 270 307 345 338 297 253 139 109 91 136 141 147 238 222 184 207 258 276 298 122 109 92 100 86 79 62 99 125 128 134 135 124 121 125 121 120 119 125 127 124 125 126 126 129 132 131 129 128 125 125 134 135 122 103 143 133 131 130 132 133
77 150 325 21 334 305 347 338 13 47 75 105 138 168 234 221 229 215 297 242 249 262 289 207 162 103 114 109 106 125 131 141 149 154 147 152 153 146 142 144 138 137 134 131 130 129 129 133 138 141 140 137 134 135 134 125 101 328 145 131 129 132 135
78 238 283 292 284 264 257 236 212 147 89 67 54 166 242 150 352 135 212 205 239 249 252 238 183 146 141 141 150 147 154 152 155 143 160 161 154 146 140 146 142 138 143 142 143 145 148 149 178 204 146 136 134 132 136 134 128 136 188 147 139 141 142
284 306 321 316 326 348 342 307 233 223 190 153 120 103 112 147 137 107 14 252 238 215 255 279 207 153 131 143 148 149 145 144 157 173 169 154 136 139 149 146 143 145 149 150 151 148 143 147 144 180 176 140 135 135 138 139 137 137 163 159 143 142 138
345 103 11 354 8 299 299 301 262 240 205 154 141 120 140 154 171 193 141 12 103 161 164 176 159 359 83 136 132 141 148 158 176 171 143 132 137 134 109 103 81 85 90 112 121 118 122 129 130 126 73 107 125 124 128 136 133 135 149 149 142 130 120
271 276 287 254 260 264 246 243 294 219 184 144 150 197 213 222 225 221 144 64 339 331 326 36 129 9 63 116 130 132 152 168 170 145 140 137 130 136 135 121 101 92 100 107 114 127 137 141 134 125 118 146 137 131 134 141 137 137 146 145 140 133 129
257 253 266 239 210 276 298 283 250 227 192 174 215 246 235 222 210 211 217 238 230 274 291 304 242 162 123 134 134 136 137 148 141 134 110 82 84 101 108 127 118 115 119 130 143 147 144 144 143 141 143 169 164 141 140 138 136 142 151 147 146 144 136
270 286 301 283 238 259 259 267 279 257 182 177 203 224 216 226 211 172 189 266 281 229 256 283 311 151 151 120 126 134 141 138 136 134 109 99 121 117 119 126 124 119 122 138 134 143 145 137 133 134 152 167 166 145 138 135 137 140 141 141 137 137 140